Nellis AFB, NV

1:54 AM PDT on June 29, 2017 (GMT -0700)
Nellis Air Force Base

Weather History for KLSV - March, 2014

Change the Weather History Date:

Saturday, March 22, 2014

  Actual Average Record
Temperature  
Mean Temperature 66 °F -  
Max Temperature 77 °F 74 °F 91 °F (2004)
Min Temperature 56 °F 48 °F 37 °F (2006)
Cooling Degree Days 2    
Growing Degree Days 16 (Base 50)    
Moisture  
Dew Point 28 °F    
Average Humidity 24    
Maximum Humidity 37    
Minimum Humidity 15    
Precipitation  
Precipitation 0.00 in - - ()
Sea Level Pressure  
Sea Level Pressure 29.89 in    
Wind  
Wind Speed 6 mph (ENE)    
Max Wind Speed 14 mph    
Max Gust Speed 20 mph    
Visibility 10 miles    
Events      
Averages and records for this station are not official NWS values.
T = Trace of Precipitation, MM = Missing Value Source: NWS Daily Summary

Daily Weather History Graph

Daily Weather History Graph

Search for Another Location

Airport or City:

Trip Planner

Search our weather history database for the weather conditions in past years. The results will help you decide how hot, cold, wet, or windy it might be!

Date:

Astronomy

Mar. 22, 2014 Rise Set
Actual Time 6:40 AM PDT 6:53 PM PDT
Civil Twilight 6:15 AM PDT 7:19 PM PDT
Nautical Twilight 5:45 AM PDT 7:49 PM PDT
Astronomical Twilight 5:14 AM PDT 8:19 PM PDT
Moon 12:08 AM PDT (3/22) 10:36 AM PDT (3/22)
Length of Visible Light 13h 04m
Length of Day
12h 13m
Waning Gibbous, 64% of the Moon is Illuminated
Mar 22
Waning Gibbous
Mar 23
Last Quarter
Mar 30
New
Apr 7
First Quarter
Apr 15
Full

Hourly Weather History & Observations

Time (PDT) Temp. Dew Point Humidity Pressure Visibility Wind Dir Wind Speed Gust Speed Precip Events Conditions
12:58 AM 63.1 °F 27.9 °F 26% 29.81 in 10.0 mi South 10.4 mph - N/A   Mostly Cloudy
1:58 AM 63.3 °F 30.9 °F 30% 29.83 in 10.0 mi SW 4.6 mph - N/A   Overcast
2:58 AM 62.8 °F 30.7 °F 30% 29.82 in 10.0 mi NNW 4.6 mph - N/A   Mostly Cloudy
3:58 AM 62.2 °F 30.7 °F 31% 29.83 in 10.0 mi WSW 3.5 mph - N/A   Overcast
4:58 AM 59.7 °F 29.3 °F 32% 29.85 in 10.0 mi West 5.8 mph - N/A   Mostly Cloudy
5:58 AM 56.8 °F 29.1 °F 35% 29.87 in 10.0 mi SSE 3.5 mph - N/A   Mostly Cloudy
6:58 AM 59.0 °F 31.3 °F 35% 29.90 in 10.0 mi Calm Calm - N/A   Partly Cloudy
7:58 AM 58.8 °F 32.2 °F 37% 29.89 in 10.0 mi Calm Calm - N/A   Mostly Cloudy
8:58 AM 64.8 °F 31.3 °F 29% 29.91 in 10.0 mi West 4.6 mph - N/A   Partly Cloudy
9:58 AM 67.5 °F 30.9 °F 26% 29.92 in 10.0 mi SSE 3.5 mph - N/A   Clear
10:58 AM 71.4 °F 28.8 °F 21% 29.92 in 10.0 mi NE 13.8 mph 19.6 mph N/A   Clear
11:58 AM 73.0 °F 27.5 °F 18% 29.93 in 10.0 mi NE 9.2 mph - N/A   Clear
12:58 PM 74.5 °F 27.3 °F 17% 29.91 in 10.0 mi NNE 10.4 mph 18.4 mph N/A   Clear
1:58 PM 74.3 °F 27.3 °F 18% 29.90 in 10.0 mi ENE 8.1 mph - N/A   Clear
2:58 PM 76.1 °F 27.1 °F 16% 29.89 in 10.0 mi East 3.5 mph - N/A   Clear
3:58 PM 77.4 °F 26.8 °F 15% 29.87 in 10.0 mi SE 5.8 mph - N/A   Clear
4:58 PM 76.1 °F 25.0 °F 15% 29.87 in 10.0 mi Variable 2.3 mph - N/A   Clear
5:58 PM 75.4 °F 25.2 °F 15% 29.88 in 10.0 mi ESE 3.5 mph - N/A   Clear
6:58 PM 74.1 °F 24.1 °F 15% 29.88 in 10.0 mi ENE 4.6 mph - N/A   Scattered Clouds
7:58 PM 67.6 °F 25.7 °F 21% 29.91 in 10.0 mi East 4.6 mph - N/A   Clear
8:58 PM 63.9 °F 24.6 °F 23% 29.94 in 10.0 mi NE 8.1 mph - N/A   Clear
9:58 PM 63.7 °F 23.4 °F 22% 29.94 in 10.0 mi North 6.9 mph - N/A   Clear
10:58 PM 64.2 °F 20.7 °F 19% 29.97 in 10.0 mi ENE 4.6 mph - N/A   Clear
11:58 PM 63.7 °F 23.4 °F 22% 29.97 in 10.0 mi ENE 10.4 mph - N/A   Clear